Sulphur, LA

12:17 AM CST on December 09, 2016 (GMT -0600)
Sulphur

Weather History for KUXL - September, 2013

Change the Weather History Date:

Friday, September 27, 2013

  Actual Average (KLCH) Record (KLCH)
Temperature  
Mean Temperature 80 °F -  
Max Temperature 90 °F 84 °F 97 °F (1910)
Min Temperature 69 °F 63 °F 45 °F (1942)
Cooling Degree Days 14    
Growing Degree Days 30 (Base 50)    
Moisture  
Dew Point 70 °F    
Average Humidity 76    
Maximum Humidity 100    
Minimum Humidity 41    
Precipitation  
Precipitation 0.00 in - - ()
Sea Level Pressure  
Sea Level Pressure 29.96 in    
Wind  
Wind Speed 2 mph (ESE)    
Max Wind Speed 9 mph    
Max Gust Speed -    
Visibility 8 miles    
Events Fog    
Averages and records for this station are not official NWS values.
T = Trace of Precipitation, MM = Missing Value Source: NWS Daily Summary

Daily Weather History Graph

Daily Weather History Graph

Search for Another Location

Airport or City:

Trip Planner

Search our weather history database for the weather conditions in past years. The results will help you decide how hot, cold, wet, or windy it might be!

Date:

Astronomy

Sep. 27, 2013 Rise Set
Actual Time 7:04 AM CDT 7:03 PM CDT
Civil Twilight 6:40 AM CDT 7:27 PM CDT
Nautical Twilight 6:13 AM CDT 7:55 PM CDT
Astronomical Twilight 5:45 AM CDT 8:23 PM CDT
Moon 12:24 AM CDT (9/27) 2:19 PM CDT (9/27)
Length of Visible Light 12h 46m
Length of Day
11h 58m
Last Quarter, 45% of the Moon is Illuminated
Sep 27
Last Quarter
Oct 4
New
Oct 11
First Quarter
Oct 18
Full
Oct 26
Last Quarter

Hourly Weather History & Observations

Time (CDT) Temp. Heat Index Dew Point Humidity Pressure Visibility Wind Dir Wind Speed Gust Speed Precip Events Conditions
12:15 AM 71.8 °F - 71.2 °F 98% 29.92 in 3.0 mi Calm Calm - N/A   Clear
12:35 AM 72.0 °F - 71.6 °F 99% 29.92 in 0.5 mi Calm Calm - N/A Fog Fog
12:55 AM 70.9 °F - 70.5 °F 99% 29.92 in 10.0 mi Calm Calm - N/A   Clear
1:15 AM 70.2 °F - 69.6 °F 98% 29.92 in 2.0 mi Calm Calm - N/A   Clear
1:35 AM 70.2 °F - 69.8 °F 99% 29.92 in 3.0 mi Calm Calm - N/A   Clear
1:55 AM 70.9 °F - 70.5 °F 99% 29.92 in 3.0 mi Calm Calm - N/A   Clear
2:15 AM 70.3 °F - 70.0 °F 99% 29.92 in 5.0 mi Calm Calm - N/A   Clear
2:35 AM 72.5 °F - 72.0 °F 98% 29.93 in 5.0 mi East 5.8 mph - N/A   Clear
2:55 AM 72.7 °F - 72.3 °F 99% 29.93 in 5.0 mi ENE 4.6 mph - N/A   Clear
3:15 AM 72.5 °F - 72.0 °F 98% 29.93 in 5.0 mi Calm Calm - N/A   Clear
3:35 AM 71.8 °F - 71.2 °F 98% 29.93 in 2.5 mi Calm Calm - N/A   Clear
3:55 AM 71.8 °F - 71.6 °F 99% 29.93 in 3.0 mi Calm Calm - N/A   Clear
4:15 AM 72.0 °F - 71.6 °F 99% 29.93 in 3.0 mi Calm Calm - N/A   Clear
4:35 AM 72.0 °F - 71.6 °F 99% 29.93 in 4.0 mi Calm Calm - N/A   Clear
4:55 AM 70.7 °F - 70.3 °F 99% 29.93 in 0.8 mi Calm Calm - N/A   Mist
5:15 AM 70.7 °F - 70.3 °F 99% 29.94 in 2.0 mi Calm Calm - N/A   Clear
5:35 AM 69.4 °F - 69.3 °F 99% 29.94 in 1.2 mi Calm Calm - N/A   Mist
5:55 AM 69.1 °F - 68.9 °F 99% 29.95 in 1.0 mi Calm Calm - N/A   Mist
6:15 AM 69.8 °F - 69.4 °F 99% 29.96 in 2.0 mi Calm Calm - N/A   Clear
6:35 AM 70.2 °F - 70.0 °F 99% 29.96 in 2.5 mi ENE 3.5 mph - N/A   Clear
6:55 AM 70.7 °F - 70.5 °F 99% 29.97 in 3.0 mi Calm Calm - N/A   Clear
7:15 AM 71.6 °F - 71.6 °F 100% 29.98 in 4.0 mi ENE 3.5 mph - N/A   Clear
7:35 AM 72.3 °F - 72.0 °F 99% 29.98 in 4.0 mi ENE 3.5 mph - N/A   Clear
7:55 AM 73.0 °F - 72.7 °F 99% 29.98 in 5.0 mi ENE 4.6 mph - N/A   Clear
8:15 AM 74.1 °F - 73.6 °F 98% 29.99 in 7.0 mi Calm Calm - N/A   Clear
8:35 AM 76.3 °F - 73.9 °F 92% 29.99 in 10.0 mi ENE 3.5 mph - N/A   Clear
8:55 AM 77.7 °F - 74.5 °F 90% 29.99 in 10.0 mi ENE 4.6 mph - N/A   Clear
9:15 AM 79.5 °F - 74.7 °F 85% 29.99 in 10.0 mi ENE 6.9 mph - N/A   Clear
9:35 AM 81.1 °F 87.0 °F 74.7 °F 81% 29.99 in 10.0 mi East 5.8 mph - N/A   Clear
9:55 AM 83.1 °F 89.8 °F 74.1 °F 74% 30.00 in 10.0 mi East 6.9 mph - N/A   Clear
10:15 AM 84.0 °F 89.3 °F 71.8 °F 66% 30.00 in 10.0 mi East 6.9 mph - N/A   Clear
10:35 AM 85.5 °F 89.8 °F 69.8 °F 59% 30.01 in 10.0 mi East 5.8 mph - N/A   Clear
10:55 AM 86.2 °F 89.4 °F 67.6 °F 54% 30.00 in 10.0 mi East 8.1 mph - N/A   Clear
11:15 AM 86.2 °F 88.8 °F 66.6 °F 52% 30.00 in 10.0 mi Calm Calm - N/A   Clear
11:35 AM 87.1 °F 89.9 °F 67.1 °F 51% 30.00 in 10.0 mi SE 8.1 mph - N/A   Clear
11:55 AM 87.6 °F 90.1 °F 66.6 °F 49% 30.00 in 10.0 mi SE 5.8 mph - N/A   Clear
12:15 PM 88.0 °F 90.0 °F 65.3 °F 47% 29.99 in 10.0 mi East 5.8 mph - N/A   Clear
12:35 PM 88.0 °F 89.6 °F 65.1 °F 46% 29.98 in 10.0 mi East 6.9 mph - N/A   Clear
12:55 PM 88.3 °F 90.2 °F 65.1 °F 46% 29.98 in 10.0 mi ESE 5.8 mph - N/A   Clear
1:15 PM 89.1 °F 91.3 °F 65.8 °F 46% 29.97 in 10.0 mi ESE 6.9 mph - N/A   Clear
1:35 PM 89.2 °F 90.9 °F 64.8 °F 44% 29.97 in 10.0 mi ESE 4.6 mph - N/A   Clear
1:55 PM 89.4 °F 91.2 °F 64.9 °F 44% 29.96 in 10.0 mi East 6.9 mph - N/A   Scattered Clouds
2:15 PM 89.2 °F 90.6 °F 64.0 °F 43% 29.95 in 10.0 mi Calm Calm - N/A   Clear
2:35 PM 89.1 °F 90.6 °F 64.4 °F 44% 29.95 in 10.0 mi South 4.6 mph - N/A   Scattered Clouds
2:55 PM 90.0 °F 92.0 °F 65.5 °F 44% 29.94 in 10.0 mi Calm Calm - N/A   Clear
3:15 PM 89.8 °F 91.0 °F 64.0 °F 42% 29.93 in 10.0 mi SE 3.5 mph - N/A   Clear
3:35 PM 90.3 °F 91.5 °F 63.7 °F 41% 29.93 in 10.0 mi East 3.5 mph - N/A   Scattered Clouds
3:55 PM 89.6 °F 91.5 °F 64.9 °F 44% 29.93 in 10.0 mi ESE 8.1 mph - N/A   Clear
4:15 PM 89.6 °F 91.5 °F 65.3 °F 44% 29.93 in 10.0 mi ESE 6.9 mph - N/A   Clear
4:35 PM 88.9 °F 91.4 °F 66.6 °F 47% 29.93 in 10.0 mi SE 9.2 mph - N/A   Clear
4:55 PM 88.7 °F 91.5 °F 66.6 °F 48% 29.93 in 10.0 mi SE 5.8 mph - N/A   Clear
5:15 PM 87.8 °F 90.4 °F 66.6 °F 49% 29.93 in 10.0 mi SE 6.9 mph - N/A   Clear
5:35 PM 87.1 °F 90.2 °F 67.5 °F 52% 29.93 in 10.0 mi SSE 8.1 mph - N/A   Clear
5:55 PM 86.0 °F 89.1 °F 67.6 °F 54% 29.93 in 10.0 mi South 8.1 mph - N/A   Clear
6:15 PM 85.1 °F 88.5 °F 68.2 °F 57% 29.93 in 10.0 mi SSE 9.2 mph - N/A   Clear
6:35 PM 83.7 °F 87.2 °F 69.1 °F 61% 29.93 in 10.0 mi SSE 5.8 mph - N/A   Clear
6:55 PM 81.9 °F 85.6 °F 70.0 °F 67% 29.93 in 10.0 mi SSE 4.6 mph - N/A   Clear
7:15 PM 80.4 °F 83.8 °F 70.2 °F 71% 29.94 in 10.0 mi SSE 4.6 mph - N/A   Clear
7:35 PM 79.2 °F - 70.7 °F 75% 29.94 in 10.0 mi SSE 4.6 mph - N/A   Clear
7:55 PM 78.6 °F - 70.7 °F 77% 29.95 in 10.0 mi SSE 3.5 mph - N/A   Clear
8:15 PM 78.1 °F - 70.9 °F 78% 29.96 in 10.0 mi Calm Calm - N/A   Clear
8:35 PM 78.1 °F - 71.1 °F 79% 29.96 in 10.0 mi Calm Calm - N/A   Clear
8:55 PM 78.3 °F - 71.2 °F 79% 29.96 in 10.0 mi Calm Calm - N/A   Clear
9:15 PM 76.3 °F - 71.6 °F 85% 29.97 in 10.0 mi Calm Calm - N/A   Clear
9:35 PM 76.1 °F - 71.6 °F 86% 29.97 in 10.0 mi Calm Calm - N/A   Clear
9:55 PM 76.5 °F - 71.4 °F 84% 29.97 in 10.0 mi Calm Calm - N/A   Clear
10:15 PM 77.2 °F - 70.7 °F 80% 29.97 in 10.0 mi Calm Calm - N/A   Clear
10:35 PM 74.8 °F - 71.8 °F 90% 29.98 in 10.0 mi Calm Calm - N/A   Clear
10:55 PM 75.2 °F - 72.3 °F 91% 29.98 in 10.0 mi Calm Calm - N/A   Clear
11:15 PM 76.1 °F - 72.9 °F 90% 29.98 in 10.0 mi ESE 3.5 mph - N/A   Clear
11:35 PM 75.7 °F - 72.5 °F 90% 29.98 in 10.0 mi East 3.5 mph - N/A   Clear
11:55 PM 75.7 °F - 72.7 °F 90% 29.97 in 10.0 mi Calm Calm - N/A   Clear